Weather History for Waterville, ME

Change the Weather History Date:

Sunday, March 9, 2014

  Actual Average Record
Temperature  
Mean Temperature 24 °F -  
Max Temperature 33 °F 40 °F 56 °F (1977)
Min Temperature 15 °F 15 °F -9 °F (2007)
Degree Days  
Heating Degree Days 41    
Moisture  
Dew Point 4 °F    
Average Humidity 44    
Maximum Humidity 73    
Minimum Humidity 25    
Precipitation  
Precipitation 0.00 in - - ()
Sea Level Pressure  
Sea Level Pressure 29.82 in    
Wind  
Wind Speed 8 mph (NW)    
Max Wind Speed 14 mph    
Max Gust Speed 20 mph    
Visibility 10 miles    
Events      
Averages and records for this station are not official NWS values.
T = Trace of Precipitation, MM = Missing Value Source: NWS Daily Summary

Daily Weather History Graph

Daily Weather History Graph

Search for Another Location

Airport:

Trip Planner

Search our weather history database for the weather conditions in past years. The results will help you decide how hot, cold, wet, or windy it might be!

Date:

Astronomy

Mar. 09, 2014 Rise Set
Actual Time 7:02 AM EDT 6:37 PM EDT
Civil Twilight 6:33 AM EDT 7:06 PM EDT
Nautical Twilight 5:59 AM EDT 7:39 PM EDT
Astronomical Twilight 5:25 AM EDT 8:14 PM EDT
Moon 12:17 PM EDT (3/9) 3:35 AM EDT (3/9)
Length of Visible Light 12h 33m
Length of Day
11h 35m
First Quarter, 61% of the Moon is Illuminated
Mar 9
First Quarter
Mar 16
Full
Mar 23
Last Quarter
Mar 30
New
Apr 7
First Quarter

Hourly Weather History & Observations

Time (EDT) Temp. Windchill Dew Point Humidity Pressure Visibility Wind Dir Wind Speed Gust Speed Precip Events Conditions
12:15 AM 26.6 °F 15.2 °F 10.4 °F 51% 29.80 in 10.0 mi NNW 13.8 mph 19.6 mph N/A   Clear
12:35 AM 26.6 °F 16.2 °F 10.4 °F 51% 29.80 in 10.0 mi NNW 11.5 mph - N/A   Clear
12:55 AM 24.8 °F 14.6 °F 10.4 °F 54% 29.80 in 10.0 mi NNW 10.4 mph - N/A   Clear
1:15 AM 24.8 °F 15.3 °F 10.4 °F 54% 29.80 in 10.0 mi North 9.2 mph - N/A   Clear
1:35 AM 24.8 °F 16.1 °F 10.4 °F 54% 29.80 in 10.0 mi NNW 8.1 mph - N/A   Clear
1:55 AM 24.8 °F 15.3 °F 10.4 °F 54% 29.80 in 10.0 mi NNW 9.2 mph - N/A   Clear
3:15 AM 23.0 °F 14.7 °F 10.4 °F 59% 29.81 in 10.0 mi WNW 6.9 mph - N/A   Clear
3:35 AM 21.2 °F 13.6 °F 10.4 °F 63% 29.81 in 10.0 mi North 5.8 mph - N/A   Clear
3:55 AM 21.2 °F 13.6 °F 10.4 °F 63% 29.80 in 10.0 mi North 5.8 mph - N/A   Clear
4:15 AM 21.2 °F 14.9 °F 8.6 °F 58% 29.81 in 10.0 mi NNW 4.6 mph - N/A   Clear
4:35 AM 21.2 °F 11.7 °F 8.6 °F 58% 29.81 in 10.0 mi North 8.1 mph - N/A   Clear
4:55 AM 21.2 °F 11.7 °F 8.6 °F 58% 29.82 in 10.0 mi North 8.1 mph - N/A   Clear
5:15 AM 19.4 °F 12.8 °F 8.6 °F 63% 29.82 in 10.0 mi North 4.6 mph - N/A   Clear
5:35 AM 19.4 °F 11.5 °F 8.6 °F 63% 29.82 in 10.0 mi North 5.8 mph - N/A   Clear
5:55 AM 17.6 °F - 8.6 °F 68% 29.82 in 10.0 mi Calm Calm - N/A   Clear
6:15 AM 17.6 °F - 8.6 °F 68% 29.82 in 10.0 mi Calm Calm - N/A   Clear
6:35 AM 15.8 °F - 6.8 °F 68% 29.83 in 10.0 mi Calm Calm - N/A   Clear
6:55 AM 15.8 °F - 6.8 °F 68% 29.83 in 10.0 mi Calm Calm - N/A   Clear
7:15 AM 15.8 °F - 8.6 °F 73% 29.83 in 10.0 mi Calm Calm - N/A   Clear
7:35 AM 15.8 °F 7.2 °F 8.6 °F 73% 29.84 in 10.0 mi North 5.8 mph - N/A   Clear
7:55 AM 17.6 °F 9.3 °F 8.6 °F 68% 29.84 in 10.0 mi North 5.8 mph - N/A   Clear
8:15 AM 17.6 °F 9.3 °F 8.6 °F 68% 29.85 in 10.0 mi North 5.8 mph - N/A   Clear
8:35 AM 19.4 °F 11.5 °F 8.6 °F 63% 29.85 in 10.0 mi North 5.8 mph - N/A   Clear
8:55 AM 19.4 °F 10.4 °F 6.8 °F 58% 29.85 in 10.0 mi NNE 6.9 mph - N/A   Clear
9:15 AM 19.4 °F 10.4 °F 8.6 °F 63% 29.86 in 10.0 mi NNE 6.9 mph - N/A   Clear
9:35 AM 21.2 °F 13.6 °F 8.6 °F 58% 29.86 in 10.0 mi NW 5.8 mph - N/A   Clear
9:55 AM 23.0 °F 18.4 °F 8.6 °F 54% 29.86 in 10.0 mi West 3.5 mph - N/A   Clear
10:15 AM 24.8 °F 19.1 °F 8.6 °F 50% 29.85 in 10.0 mi WNW 4.6 mph - N/A   Clear
10:35 AM 24.8 °F 16.9 °F 8.6 °F 50% 29.85 in 10.0 mi NNW 6.9 mph - N/A   Clear
10:55 AM 24.8 °F 17.9 °F 8.6 °F 50% 29.84 in 10.0 mi NNW 5.8 mph - N/A   Clear
11:15 AM 26.6 °F - 8.6 °F 47% 29.83 in 10.0 mi Calm Calm - N/A   Clear
11:35 AM 26.6 °F 21.2 °F 8.6 °F 47% 29.83 in 10.0 mi NNW 4.6 mph - N/A   Clear
11:55 AM 26.6 °F 21.2 °F 6.8 °F 43% 29.83 in 10.0 mi NW 4.6 mph - N/A   Clear
12:15 PM 28.4 °F 20.4 °F 6.8 °F 40% 29.82 in 10.0 mi WNW 8.1 mph - N/A   Clear
12:35 PM 28.4 °F 21.2 °F 6.8 °F 40% 29.81 in 10.0 mi NW 6.9 mph - N/A   Clear
12:55 PM 30.2 °F 22.6 °F 6.8 °F 37% 29.81 in 10.0 mi NW 8.1 mph - N/A   Clear
1:15 PM 30.2 °F 21.9 °F 6.8 °F 37% 29.81 in 10.0 mi NW 9.2 mph - N/A   Clear
1:35 PM 30.2 °F 21.9 °F 6.8 °F 37% 29.79 in 10.0 mi North 9.2 mph 16.1 mph N/A   Clear
1:55 PM 30.2 °F 24.3 °F 6.8 °F 37% 29.78 in 10.0 mi NW 5.8 mph - N/A   Clear
2:15 PM 30.2 °F 21.9 °F 6.8 °F 37% 29.78 in 10.0 mi West 9.2 mph 16.1 mph N/A   Clear
2:35 PM 32.0 °F 25.6 °F 6.8 °F 35% 29.77 in 10.0 mi West 6.9 mph - N/A   Clear
2:55 PM 33.8 °F 27.0 °F 5.0 °F 30% 29.77 in 10.0 mi West 8.1 mph - N/A   Clear
3:15 PM 32.0 °F 23.0 °F 3.2 °F 30% 29.78 in 10.0 mi WNW 11.5 mph 17.3 mph N/A   Clear
3:35 PM 33.8 °F 25.8 °F 3.2 °F 28% 29.77 in 10.0 mi WNW 10.4 mph - N/A   Clear
3:55 PM 33.8 °F 24.8 °F 1.4 °F 25% 29.77 in 10.0 mi NW 12.7 mph 17.3 mph N/A   Clear
4:15 PM 32.0 °F 23.6 °F -0.4 °F 25% 29.78 in 10.0 mi West 10.4 mph 18.4 mph N/A   Clear
4:35 PM 32.0 °F 23.0 °F -0.4 °F 25% 29.79 in 10.0 mi WNW 11.5 mph 18.4 mph N/A   Clear
4:55 PM 32.0 °F 22.5 °F -0.4 °F 25% 29.79 in 10.0 mi WNW 12.7 mph 18.4 mph N/A   Clear
5:15 PM 32.0 °F 23.0 °F -0.4 °F 25% 29.79 in 10.0 mi WNW 11.5 mph 18.4 mph N/A   Clear
5:35 PM 30.2 °F 20.8 °F -2.2 °F 25% 29.80 in 10.0 mi West 11.5 mph 17.3 mph N/A   Clear
5:55 PM 30.2 °F 21.3 °F -2.2 °F 25% 29.80 in 10.0 mi West 10.4 mph - N/A   Clear
6:15 PM 28.4 °F 19.7 °F -2.2 °F 27% 29.81 in 10.0 mi West 9.2 mph 17.3 mph N/A   Clear
6:35 PM 28.4 °F 20.4 °F -2.2 °F 27% 29.81 in 10.0 mi West 8.1 mph - N/A   Clear
6:55 PM 28.4 °F 19.7 °F -2.2 °F 27% 29.81 in 10.0 mi WNW 9.2 mph - N/A   Clear
7:15 PM 26.6 °F 20.0 °F -2.2 °F 29% 29.82 in 10.0 mi WNW 5.8 mph - N/A   Clear
7:35 PM 26.6 °F 17.5 °F -2.2 °F 29% 29.82 in 10.0 mi WNW 9.2 mph - N/A   Clear
7:55 PM 26.6 °F 19.1 °F -2.2 °F 29% 29.83 in 10.0 mi WNW 6.9 mph - N/A   Clear
8:15 PM 26.6 °F 19.1 °F -2.2 °F 29% 29.83 in 10.0 mi WNW 6.9 mph - N/A   Clear
8:35 PM 24.8 °F 16.9 °F -2.2 °F 31% 29.83 in 10.0 mi West 6.9 mph - N/A   Clear
8:55 PM 24.8 °F 19.1 °F -2.2 °F 31% 29.83 in 10.0 mi West 4.6 mph - N/A   Clear
9:15 PM 24.8 °F 19.1 °F -2.2 °F 31% 29.83 in 10.0 mi WNW 4.6 mph - N/A   Clear
9:35 PM 24.8 °F 16.9 °F -2.2 °F 31% 29.83 in 10.0 mi NW 6.9 mph - N/A   Clear
9:55 PM 24.8 °F 16.1 °F -2.2 °F 31% 29.84 in 10.0 mi WNW 8.1 mph - N/A   Clear
10:15 PM 23.0 °F 18.4 °F -2.2 °F 33% 29.83 in 10.0 mi NW 3.5 mph - N/A   Clear
10:35 PM 23.0 °F 13.9 °F -2.2 °F 33% 29.83 in 10.0 mi NW 8.1 mph - N/A   Clear
10:55 PM 23.0 °F 14.7 °F -2.2 °F 33% 29.82 in 10.0 mi NW 6.9 mph - N/A   Partly Cloudy
11:15 PM 23.0 °F 17.0 °F -2.2 °F 33% 29.82 in 10.0 mi WNW 4.6 mph - N/A   Mostly Cloudy
11:35 PM 23.0 °F 13.9 °F -2.2 °F 33% 29.82 in 10.0 mi WNW 8.1 mph - N/A   Mostly Cloudy
11:55 PM 23.0 °F 14.7 °F -2.2 °F 33% 29.82 in 10.0 mi WNW 6.9 mph - N/A   Partly Cloudy
12:15 AM 23.0 °F 15.8 °F -2.2 °F 33% 29.81 in 10.0 mi WNW 5.8 mph - N/A   Clear
12:35 AM 23.0 °F 15.8 °F -2.2 °F 33% 29.81 in 10.0 mi NW 5.8 mph - N/A   Clear
12:55 AM 21.2 °F 14.9 °F -0.4 °F 39% 29.81 in 10.0 mi NNW 4.6 mph - N/A   Clear